This demonstration page uses our WeatherBlox Daily Observations layout. Learn more.

Left ArrowRight Arrow

38.83388, -104.82136

Hourly Observations for January 7, 2022

Temp ( °F °C ) Dew Point ( °F °C ) Humidity (%) Winds ( mph kmh ) Pressure ( in mb ) Visibility ( mi km ) Precip ( " mm )
12:54 am 00:54 Mostly Clear 32 0 15 -9.4 50 50 W 8 13 29.89 1012 10 16 0.00 0.00
1:54 am 01:54 Partly Cloudy 45 7.2 21 -6.1 39 39 SSW 13 20 29.84 1011 10 16 0.00 0.00
2:54 am 02:54 Mostly Cloudy 36 2.2 19 -7.2 50 50 ENE 8 13 29.89 1012 10 16 0.00 0.00
3:54 am 03:54 Partly Cloudy 32 0 19 -7.2 59 59 E 5 7 29.90 1013 10 16 0.00 0.00
4:54 am 04:54 Clear 30 -1.1 19 -7.2 64 64 NNE 13 20 29.89 1012 10 16 0.00 0.00
5:54 am 05:54 Clear 31 -0.6 19 -7.2 61 61 NNE 9 15 29.89 1012 10 16 0.00 0.00
6:54 am 06:54 Mostly Clear 34 1.1 20 -6.7 56 56 ENE 8 13 29.89 1012 10 16 0.00 0.00
7:54 am 07:54 Partly Cloudy 31 -0.6 19 -7.2 61 61 VRB 3 6 29.91 1013 7 11 0.00 0.00
8:54 am 08:54 Partly Cloudy 49 9.4 24 -4.4 38 38 NNE 3 6 29.83 1010 10 16 0.00 0.00
9:54 am 09:54 Partly Cloudy 54 12.2 23 -5 30 30 Calm 29.80 1009 10 16 0.00 0.00
10:54 am 10:54 Partly Cloudy 59 15 20 -6.7 22 22 Calm 29.76 1008 10 16 0.00 0.00
11:54 am 11:54 Partly Cloudy 64 17.8 16 -8.9 15 15 SW 6 9 29.70 1006 10 16 0.00 0.00
12:54 pm 12:54 Partly Cloudy 66 18.9 13 -10.6 13 13 SSW 7 11 29.59 1002 10 16 0.00 0.00
1:54 pm 13:54 Partly Cloudy 67 19.4 15 -9.4 13 13 SSW 16 26 29.51 999 10 16 0.00 0.00
2:54 pm 14:54 Mostly Sunny 66 18.9 16 -8.9 14 14 SSW 23 37 29.54 1000 10 16 0.00 0.00
3:54 pm 15:54 Mostly Sunny 63 17.2 18 -7.8 17 17 SSW 20 31 29.57 1001 10 16 0.00 0.00
4:54 pm 16:54 Mostly Clear 57 13.9 19 -7.2 23 23 SSW 15 24 29.61 1003 10 16 0.00 0.00
5:54 pm 17:54 Clear 54 12.2 18 -7.8 24 24 SSW 10 17 29.63 1003 10 16 0.00 0.00
6:54 pm 18:54 Clear 55 12.8 18 -7.8 23 23 SSW 16 26 29.60 1003 10 16 0.00 0.00
7:54 pm 19:54 Clear 53 11.7 19 -7.2 26 26 SSW 17 28 29.62 1003 10 16 0.00 0.00
8:54 pm 20:54 Mostly Clear 52 11.1 19 -7.2 27 27 S 16 26 29.52 1000 10 16 0.00 0.00
9:54 pm 21:54 Mostly Clear 53 11.7 18 -7.8 25 25 WSW 3 6 29.49 999 10 16 0.00 0.00
10:54 pm 22:54 Partly Cloudy 42 5.6 18 -7.8 38 38 ENE 8 13 29.52 1000 10 16 0.00 0.00
11:54 pm 23:54 Mostly Clear 39 3.9 17 -8.3 41 41 NE 10 17 29.50 999 10 16 0.00 0.00

Powered by AerisWeather